Terminal Aerodrome Forecast
Issued by NWS

Home | Current Version | Previous Version | Text Only | Print | Product List | Glossary On
Versions: 1 2 3 4 5 6 7 8 9 10 11 12 13 14 15
000
FTUS44 KTSA 252340
TAFRVS
TAF
KRVS 252340Z 2600/2624 VRB08KT P6SM VCTS BKN060CB
     FM260300 17005KT P6SM SCT050
     FM260900 VRB04KT P6SM SCT050 BKN250
     FM261600 16009KT P6SM SCT060 BKN250=

USA.gov is the U.S. government's official web portal to all federal, state and local government web resources and services.